User: anonymous   Login
Location: *
(34.8620°S, 39.3380°E)
Time: 18:08:08
(UTC+00:00)
Language:

COSMOS 2251 DEB - Orbit

View from above orbital plane
View from above orbital plane
View from above satellite
View from above satellite

Ground track
Ground track

The orbit data is extracted from the following two-line orbital elements,

1 38066U 93036BRY 22279.05968149  .00048749  00000-0  54756-2 0  9999
2 38066  74.0170 311.3811 0019627 304.9409  54.9926 14.86349268597294
Epoch (UTC): 06 October 2022 01:25:56
Eccentricity: 0.0019627
inclination: 74.0170°
perigee height: 595 km
apogee height: 623 km
right ascension of ascending node: 311.3811°
argument of perigee: 304.9409°
revolutions per day: 14.86349268
mean anomaly at epoch: 54.9926°
orbit number at epoch: 59729

The dashed part of the orbit path shows where the satellite is in the earth's shadow,  

DLR